Time,TemperatureF,DewpointF,PressureIn,WindDirection,WindDirectionDegrees,WindSpeedMPH,WindSpeedGustMPH,Humidity,HourlyPrecipIn,Conditions,Clouds,dailyrainin,SoftwareType,DateUTC
2013-07-17 00:00:00,70.3,63.5,30.17,SSE,150,1.0,1.0,79,0.00,,,0.00,Wunderground v.1.15,2013-07-17 05:00:00,
2013-07-17 00:10:00,70.1,63.3,30.17,SSE,148,0.0,5.0,79,0.00,,,0.00,Wunderground v.1.15,2013-07-17 05:10:00,
2013-07-17 00:15:00,69.9,63.1,30.17,SSE,148,0.0,5.0,79,0.00,,,0.00,Wunderground v.1.15,2013-07-17 05:15:00,
2013-07-17 00:20:00,69.6,63.2,30.18,SSE,148,0.0,5.0,80,0.00,,,0.00,Wunderground v.1.15,2013-07-17 05:20:00,
2013-07-17 00:30:00,69.2,63.1,30.18,SSE,153,0.0,5.0,81,0.00,,,0.00,Wunderground v.1.15,2013-07-17 05:30:00,
2013-07-17 00:40:00,68.9,62.8,30.18,SSE,154,0.0,5.0,81,0.00,,,0.00,Wunderground v.1.15,2013-07-17 05:40:00,
2013-07-17 00:50:00,68.8,63.1,30.18,SSE,147,0.0,5.0,82,0.00,,,0.00,Wunderground v.1.15,2013-07-17 05:50:00,
2013-07-17 00:55:00,68.9,63.2,30.18,SSE,147,0.0,5.0,82,0.00,,,0.00,Wunderground v.1.15,2013-07-17 05:55:00,
2013-07-17 01:00:00,68.8,63.1,30.18,SSE,147,0.0,5.0,82,0.00,,,0.00,Wunderground v.1.15,2013-07-17 06:00:00,
2013-07-17 01:10:00,68.5,62.8,30.18,SSE,147,0.0,5.0,82,0.00,,,0.00,Wunderground v.1.15,2013-07-17 06:10:00,
2013-07-17 01:20:00,68.1,62.4,30.19,SSE,147,0.0,5.0,82,0.00,,,0.00,Wunderground v.1.15,2013-07-17 06:20:00,
2013-07-17 01:30:00,68.0,62.6,30.19,SSE,147,0.0,5.0,83,0.00,,,0.00,Wunderground v.1.15,2013-07-17 06:30:00,
2013-07-17 01:40:00,67.9,62.5,30.19,SSE,147,0.0,5.0,83,0.00,,,0.00,Wunderground v.1.15,2013-07-17 06:40:00,
2013-07-17 01:45:00,68.0,62.6,30.19,SSE,147,0.0,5.0,83,0.00,,,0.00,Wunderground v.1.15,2013-07-17 06:45:00,
2013-07-17 01:50:00,68.0,62.6,30.19,South,191,1.0,5.0,83,0.00,,,0.00,Wunderground v.1.15,2013-07-17 06:50:00,
2013-07-17 02:00:00,68.6,63.2,30.19,SSW,192,2.0,2.0,83,0.00,,,0.00,Wunderground v.1.15,2013-07-17 07:00:00,
2013-07-17 02:10:00,68.6,63.2,30.19,SSW,192,2.0,2.0,83,0.00,,,0.00,Wunderground v.1.15,2013-07-17 07:10:00,
2013-07-17 02:20:00,68.5,62.8,30.19,SSW,192,1.0,5.0,82,0.00,,,0.00,Wunderground v.1.15,2013-07-17 07:20:00,
2013-07-17 02:30:00,68.5,63.1,30.19,SSW,192,2.0,5.0,83,0.00,,,0.00,Wunderground v.1.15,2013-07-17 07:30:00,
2013-07-17 02:40:00,68.7,63.3,30.19,South,188,2.0,2.0,83,0.00,,,0.00,Wunderground v.1.15,2013-07-17 07:40:00,
2013-07-17 02:45:00,68.8,63.4,30.19,South,188,2.0,5.0,83,0.00,,,0.00,Wunderground v.1.15,2013-07-17 07:45:00,
2013-07-17 02:55:00,68.6,62.9,30.19,South,188,2.0,5.0,82,0.00,,,0.00,Wunderground v.1.15,2013-07-17 07:55:00,
2013-07-17 03:00:00,68.7,63.3,30.19,South,188,2.0,2.0,83,0.00,,,0.00,Wunderground v.1.15,2013-07-17 08:00:00,
2013-07-17 03:10:00,68.4,62.7,30.19,South,188,2.0,2.0,82,0.00,,,0.00,Wunderground v.1.15,2013-07-17 08:10:00,
2013-07-17 03:20:00,68.3,62.9,30.19,South,188,1.0,1.0,83,0.00,,,0.00,Wunderground v.1.15,2013-07-17 08:20:00,
2013-07-17 03:30:00,68.0,62.6,30.19,South,188,1.0,5.0,83,0.00,,,0.00,Wunderground v.1.15,2013-07-17 08:30:00,
2013-07-17 03:40:00,67.9,62.5,30.19,South,190,2.0,5.0,83,0.00,,,0.00,Wunderground v.1.15,2013-07-17 08:40:00,
2013-07-17 03:45:00,68.2,63.2,30.19,South,173,2.0,5.0,84,0.00,,,0.00,Wunderground v.1.15,2013-07-17 08:45:00,
2013-07-17 03:50:00,68.4,63.4,30.19,SSW,196,3.0,3.0,84,0.00,,,0.00,Wunderground v.1.15,2013-07-17 08:50:00,
2013-07-17 04:00:00,68.7,63.3,30.19,South,185,2.0,5.0,83,0.00,,,0.00,Wunderground v.1.15,2013-07-17 09:00:00,
2013-07-17 04:10:00,68.6,63.2,30.19,South,186,1.0,1.0,83,0.00,,,0.00,Wunderground v.1.15,2013-07-17 09:10:00,
2013-07-17 04:15:00,68.4,63.0,30.19,South,185,0.0,5.0,83,0.00,,,0.00,Wunderground v.1.15,2013-07-17 09:15:00,
2013-07-17 04:25:00,68.2,62.8,30.19,South,185,0.0,5.0,83,0.00,,,0.00,Wunderground v.1.15,2013-07-17 09:25:00,
2013-07-17 04:30:00,68.0,62.6,30.19,South,185,0.0,5.0,83,0.00,,,0.00,Wunderground v.1.15,2013-07-17 09:30:00,
2013-07-17 04:40:00,67.5,62.5,30.19,South,185,1.0,1.0,84,0.00,,,0.00,Wunderground v.1.15,2013-07-17 09:40:00,
2013-07-17 04:50:00,67.1,62.1,30.19,South,186,0.0,5.0,84,0.00,,,0.00,Wunderground v.1.15,2013-07-17 09:50:00,
2013-07-17 05:00:00,67.0,62.3,30.19,South,185,2.0,2.0,85,0.00,,,0.00,Wunderground v.1.15,2013-07-17 10:00:00,
2013-07-17 05:05:00,67.0,62.3,30.19,South,186,2.0,5.0,85,0.00,,,0.00,Wunderground v.1.15,2013-07-17 10:05:00,
2013-07-17 05:15:00,67.0,62.3,30.19,South,185,1.0,5.0,85,0.00,,,0.00,Wunderground v.1.15,2013-07-17 10:15:00,
2013-07-17 05:20:00,67.0,62.3,30.19,South,185,2.0,5.0,85,0.00,,,0.00,Wunderground v.1.15,2013-07-17 10:20:00,
2013-07-17 05:30:00,66.8,62.1,30.19,South,185,1.0,5.0,85,0.00,,,0.00,Wunderground v.1.15,2013-07-17 10:30:00,
2013-07-17 05:40:00,66.6,61.9,30.19,South,185,2.0,5.0,85,0.00,,,0.00,Wunderground v.1.15,2013-07-17 10:40:00,
2013-07-17 05:50:00,66.6,61.9,30.19,South,185,1.0,1.0,85,0.00,,,0.00,Wunderground v.1.15,2013-07-17 10:50:00,
2013-07-17 06:00:00,66.4,61.8,30.19,South,185,1.0,4.0,85,0.00,,,0.00,Wunderground v.1.15,2013-07-17 11:00:00,
2013-07-17 06:10:00,66.2,61.9,30.20,SSE,166,1.0,1.0,86,0.00,,,0.00,Wunderground v.1.15,2013-07-17 11:10:00,
2013-07-17 06:15:00,65.9,61.3,30.20,SSE,165,1.0,4.0,85,0.00,,,0.00,Wunderground v.1.15,2013-07-17 11:15:00,
2013-07-17 06:25:00,65.6,61.3,30.20,SSE,166,0.0,4.0,86,0.00,,,0.00,Wunderground v.1.15,2013-07-17 11:25:00,
2013-07-17 06:30:00,65.5,61.2,30.20,SSE,165,0.0,4.0,86,0.00,,,0.00,Wunderground v.1.15,2013-07-17 11:30:00,
2013-07-17 06:40:00,65.8,61.8,30.20,SSE,165,0.0,4.0,87,0.00,,,0.00,Wunderground v.1.15,2013-07-17 11:40:00,
2013-07-17 06:50:00,66.4,62.4,30.20,SSE,164,1.0,4.0,87,0.00,,,0.00,Wunderground v.1.15,2013-07-17 11:50:00,
2013-07-17 07:00:00,67.0,62.7,30.20,South,170,2.0,4.0,86,0.00,,,0.00,Wunderground v.1.15,2013-07-17 12:00:00,
2013-07-17 07:05:00,67.5,63.2,30.20,SSE,162,3.0,5.0,86,0.00,,,0.00,Wunderground v.1.15,2013-07-17 12:05:00,
2013-07-17 07:10:00,67.9,63.6,30.20,SSE,159,2.0,2.0,86,0.00,,,0.00,Wunderground v.1.15,2013-07-17 12:10:00,
2013-07-17 07:20:00,68.5,63.8,30.20,SSW,203,2.0,4.0,85,0.00,,,0.00,Wunderground v.1.15,2013-07-17 12:20:00,
2013-07-17 07:30:00,69.2,63.8,30.20,SSW,192,3.0,4.0,83,0.00,,,0.00,Wunderground v.1.15,2013-07-17 12:30:00,
2013-07-17 07:40:00,69.8,64.1,30.20,South,182,3.0,3.0,82,0.00,,,0.00,Wunderground v.1.15,2013-07-17 12:40:00,
2013-07-17 07:50:00,70.6,64.5,30.20,SSW,196,2.0,4.0,81,0.00,,,0.00,Wunderground v.1.15,2013-07-17 12:50:00,
2013-07-17 07:55:00,71.0,64.9,30.20,SSE,167,3.0,4.0,81,0.00,,,0.00,Wunderground v.1.15,2013-07-17 12:55:00,
2013-07-17 08:05:00,71.7,64.8,30.21,SSW,194,3.0,5.0,79,0.00,,,0.00,Wunderground v.1.15,2013-07-17 13:05:00,
2013-07-17 08:10:00,71.7,64.8,30.21,SSW,192,4.0,4.0,79,0.00,,,0.00,Wunderground v.1.15,2013-07-17 13:10:00,
2013-07-17 08:20:00,72.4,65.2,30.21,South,179,4.0,5.0,78,0.00,,,0.00,Wunderground v.1.15,2013-07-17 13:20:00,
2013-07-17 08:30:00,73.3,65.7,30.21,SSW,213,5.0,7.0,77,0.00,,,0.00,Wunderground v.1.15,2013-07-17 13:30:00,
2013-07-17 08:40:00,74.3,66.2,30.21,SSW,206,6.0,8.0,76,0.00,,,0.00,Wunderground v.1.15,2013-07-17 13:40:00,
2013-07-17 08:45:00,74.7,65.9,30.21,SW,216,6.0,8.0,74,0.00,,,0.00,Wunderground v.1.15,2013-07-17 13:45:00,
2013-07-17 08:55:00,75.9,66.2,30.21,SSW,209,5.0,7.0,72,0.00,,,0.00,Wunderground v.1.15,2013-07-17 13:55:00,
2013-07-17 09:05:00,76.8,65.9,30.21,South,183,6.0,6.0,69,0.00,,,0.00,Wunderground v.1.15,2013-07-17 14:05:00,
2013-07-17 09:10:00,77.3,65.1,30.21,South,181,6.0,6.0,66,0.00,,,0.00,Wunderground v.1.15,2013-07-17 14:10:00,
2013-07-17 09:20:00,77.7,65.0,30.21,SW,215,7.0,8.0,65,0.00,,,0.00,Wunderground v.1.15,2013-07-17 14:20:00,
2013-07-17 09:30:00,78.5,65.3,30.21,SSW,206,7.0,7.0,64,0.00,,,0.00,Wunderground v.1.15,2013-07-17 14:30:00,
2013-07-17 09:40:00,79.0,64.9,30.21,SSW,212,7.0,8.0,62,0.00,,,0.00,Wunderground v.1.15,2013-07-17 14:40:00,
2013-07-17 09:50:00,79.6,64.5,30.20,SSW,197,8.0,13.0,60,0.00,,,0.00,Wunderground v.1.15,2013-07-17 14:50:00,
2013-07-17 10:00:00,80.1,65.9,30.20,SSW,197,8.0,8.0,62,0.00,,,0.00,Wunderground v.1.15,2013-07-17 15:00:00,
2013-07-17 10:10:00,81.2,66.0,30.20,South,175,8.0,8.0,60,0.00,,,0.00,Wunderground v.1.15,2013-07-17 15:10:00,
2013-07-17 10:15:00,81.8,65.1,30.20,SSW,206,7.0,9.0,57,0.00,,,0.00,Wunderground v.1.15,2013-07-17 15:15:00,
2013-07-17 10:25:00,82.8,66.0,30.20,SW,215,7.0,7.0,57,0.00,,,0.00,Wunderground v.1.15,2013-07-17 15:25:00,
2013-07-17 10:35:00,83.0,65.7,30.20,South,190,8.0,11.0,56,0.00,,,0.00,Wunderground v.1.15,2013-07-17 15:35:00,
2013-07-17 10:40:00,83.2,66.4,30.19,SSW,208,10.0,10.0,57,0.00,,,0.00,Wunderground v.1.15,2013-07-17 15:40:00,
2013-07-17 10:50:00,84.3,65.8,30.19,SE,146,7.0,7.0,54,0.00,,,0.00,Wunderground v.1.15,2013-07-17 15:50:00,
2013-07-17 11:00:00,84.4,64.3,30.19,South,173,9.0,9.0,51,0.00,,,0.00,Wunderground v.1.15,2013-07-17 16:00:00,
2013-07-17 11:10:00,85.3,65.1,30.19,SSW,202,8.0,8.0,51,0.00,,,0.00,Wunderground v.1.15,2013-07-17 16:10:00,
2013-07-17 11:15:00,85.6,64.8,30.19,SSE,165,7.0,8.0,50,0.00,,,0.00,Wunderground v.1.15,2013-07-17 16:15:00,
2013-07-17 11:20:00,85.6,64.2,30.19,SSW,213,8.0,10.0,49,0.00,,,0.00,Wunderground v.1.15,2013-07-17 16:20:00,
2013-07-17 11:30:00,85.0,64.3,30.20,SSW,198,11.0,11.0,50,0.00,,,0.00,Wunderground v.1.15,2013-07-17 16:30:00,
2013-07-17 11:40:00,85.9,64.5,30.19,South,171,9.0,9.0,49,0.00,,,0.00,Wunderground v.1.15,2013-07-17 16:40:00,
2013-07-17 11:50:00,86.5,65.1,30.19,SSW,194,7.0,9.0,49,0.00,,,0.00,Wunderground v.1.15,2013-07-17 16:50:00,
2013-07-17 12:00:00,87.0,64.9,30.19,SSE,154,9.0,9.0,48,0.00,,,0.00,Wunderground v.1.15,2013-07-17 17:00:00,
2013-07-17 12:10:00,87.2,64.5,30.19,South,169,8.0,8.0,47,0.00,,,0.00,Wunderground v.1.15,2013-07-17 17:10:00,
2013-07-17 12:15:00,87.6,64.9,30.19,SE,140,8.0,19.0,47,0.00,,,0.00,Wunderground v.1.15,2013-07-17 17:15:00,
2013-07-17 12:20:00,87.4,64.1,30.19,South,188,8.0,19.0,46,0.00,,,0.00,Wunderground v.1.15,2013-07-17 17:20:00,
2013-07-17 12:30:00,88.3,64.3,30.18,SSW,202,8.0,8.0,45,0.00,,,0.00,Wunderground v.1.15,2013-07-17 17:30:00,
2013-07-17 12:40:00,87.0,63.7,30.18,SSW,199,11.0,11.0,46,0.00,,,0.00,Wunderground v.1.15,2013-07-17 17:40:00,
2013-07-17 12:50:00,88.3,63.6,30.18,SSW,200,11.0,11.0,44,0.00,,,0.00,Wunderground v.1.15,2013-07-17 17:50:00,
2013-07-17 12:55:00,87.2,64.5,30.18,SW,215,12.0,12.0,47,0.00,,,0.00,Wunderground v.1.15,2013-07-17 17:55:00,
2013-07-17 13:05:00,87.8,64.4,30.18,South,184,11.0,19.0,46,0.00,,,0.00,Wunderground v.1.15,2013-07-17 18:05:00,
2013-07-17 13:10:00,88.7,64.6,30.17,South,179,9.0,19.0,45,0.00,,,0.00,Wunderground v.1.15,2013-07-17 18:10:00,
2013-07-17 13:20:00,89.5,66.0,30.17,SE,141,8.0,19.0,46,0.00,,,0.00,Wunderground v.1.15,2013-07-17 18:20:00,
2013-07-17 13:30:00,89.0,65.5,30.17,SE,146,11.0,11.0,46,0.00,,,0.00,Wunderground v.1.15,2013-07-17 18:30:00,
2013-07-17 13:40:00,89.4,65.9,30.16,South,169,11.0,19.0,46,0.00,,,0.00,Wunderground v.1.15,2013-07-17 18:40:00,
2013-07-17 13:50:00,89.0,63.6,30.16,SSW,212,11.0,19.0,43,0.00,,,0.00,Wunderground v.1.15,2013-07-17 18:50:00,
2013-07-17 14:00:00,88.4,64.4,30.16,South,172,10.0,10.0,45,0.00,,,0.00,Wunderground v.1.15,2013-07-17 19:00:00,
2013-07-17 14:05:00,89.8,65.0,30.16,SSW,193,9.0,18.0,44,0.00,,,0.00,Wunderground v.1.15,2013-07-17 19:05:00,
2013-07-17 14:10:00,90.2,63.3,30.15,SSW,212,10.0,19.0,41,0.00,,,0.00,Wunderground v.1.15,2013-07-17 19:10:00,
2013-07-17 14:20:00,89.7,64.9,30.15,SSW,196,12.0,12.0,44,0.00,,,0.00,Wunderground v.1.15,2013-07-17 19:20:00,
2013-07-17 14:30:00,90.2,66.6,30.15,South,184,9.0,19.0,46,0.00,,,0.00,Wunderground v.1.15,2013-07-17 19:30:00,
2013-07-17 14:40:00,89.4,64.0,30.14,SSW,205,11.0,11.0,43,0.00,,,0.00,Wunderground v.1.15,2013-07-17 19:40:00,
2013-07-17 14:50:00,89.7,64.2,30.14,SSW,197,10.0,10.0,43,0.00,,,0.00,Wunderground v.1.15,2013-07-17 19:50:00,
2013-07-17 14:55:00,89.9,63.0,30.13,SSW,193,11.0,11.0,41,0.00,,,0.00,Wunderground v.1.15,2013-07-17 19:55:00,
2013-07-17 15:05:00,90.5,64.3,30.13,SSW,196,12.0,12.0,42,0.00,,,0.00,Wunderground v.1.15,2013-07-17 20:05:00,
2013-07-17 15:10:00,90.5,64.9,30.13,South,173,11.0,11.0,43,0.00,,,0.00,Wunderground v.1.15,2013-07-17 20:10:00,
2013-07-17 15:20:00,91.3,62.9,30.13,SSW,199,9.0,19.0,39,0.00,,,0.00,Wunderground v.1.15,2013-07-17 20:20:00,
2013-07-17 15:30:00,91.7,64.7,30.13,SSW,208,9.0,19.0,41,0.00,,,0.00,Wunderground v.1.15,2013-07-17 20:30:00,
2013-07-17 15:40:00,91.0,62.6,30.12,SSW,200,10.0,19.0,39,0.00,,,0.00,Wunderground v.1.15,2013-07-17 20:40:00,
2013-07-17 15:50:00,91.0,65.4,30.12,SSW,210,11.0,19.0,43,0.00,,,0.00,Wunderground v.1.15,2013-07-17 20:50:00,
2013-07-17 16:00:00,90.8,63.1,30.12,SW,218,10.0,19.0,40,0.00,,,0.00,Wunderground v.1.15,2013-07-17 21:00:00,
2013-07-17 16:05:00,90.6,62.3,30.12,South,179,11.0,19.0,39,0.00,,,0.00,Wunderground v.1.15,2013-07-17 21:05:00,
2013-07-17 16:15:00,90.9,63.2,30.11,SSW,193,11.0,19.0,40,0.00,,,0.00,Wunderground v.1.15,2013-07-17 21:15:00,
2013-07-17 16:25:00,90.8,63.1,30.11,South,175,11.0,17.0,40,0.00,,,0.00,Wunderground v.1.15,2013-07-17 21:25:00,
2013-07-17 16:30:00,90.4,62.8,30.11,South,172,11.0,11.0,40,0.00,,,0.00,Wunderground v.1.15,2013-07-17 21:30:00,
2013-07-17 16:40:00,90.9,62.5,30.11,SSW,194,11.0,19.0,39,0.00,,,0.00,Wunderground v.1.15,2013-07-17 21:40:00,
2013-07-17 16:50:00,90.5,62.9,30.11,SE,146,10.0,19.0,40,0.00,,,0.00,Wunderground v.1.15,2013-07-17 21:50:00,
2013-07-17 16:55:00,90.8,63.1,30.11,SSE,155,10.0,19.0,40,0.00,,,0.00,Wunderground v.1.15,2013-07-17 21:55:00,
2013-07-17 17:05:00,90.2,63.3,30.10,South,186,13.0,19.0,41,0.00,,,0.00,Wunderground v.1.15,2013-07-17 22:05:00,
2013-07-17 17:10:00,89.8,63.6,30.10,SW,215,13.0,13.0,42,0.00,,,0.00,Wunderground v.1.15,2013-07-17 22:10:00,
2013-07-17 17:20:00,90.6,65.7,30.10,SSW,209,11.0,19.0,44,0.00,,,0.00,Wunderground v.1.15,2013-07-17 22:20:00,
2013-07-17 17:30:00,90.0,62.4,30.10,South,174,13.0,13.0,40,0.00,,,0.00,Wunderground v.1.15,2013-07-17 22:30:00,
2013-07-17 17:40:00,89.7,64.2,30.09,SW,217,13.0,13.0,43,0.00,,,0.00,Wunderground v.1.15,2013-07-17 22:40:00,
2013-07-17 17:50:00,89.4,64.0,30.09,SSW,198,11.0,11.0,43,0.00,,,0.00,Wunderground v.1.15,2013-07-17 22:50:00,
2013-07-17 17:55:00,89.8,65.0,30.09,SSW,194,10.0,19.0,44,0.00,,,0.00,Wunderground v.1.15,2013-07-17 22:55:00,
2013-07-17 18:05:00,89.8,63.6,30.08,South,185,10.0,23.0,42,0.00,,,0.00,Wunderground v.1.15,2013-07-17 23:05:00,
2013-07-17 18:10:00,89.7,62.9,30.08,SSW,197,10.0,10.0,41,0.00,,,0.00,Wunderground v.1.15,2013-07-17 23:10:00,
2013-07-17 18:20:00,89.5,66.0,30.08,South,188,8.0,23.0,46,0.00,,,0.00,Wunderground v.1.15,2013-07-17 23:20:00,
2013-07-17 18:30:00,89.4,64.6,30.07,South,172,8.0,23.0,44,0.00,,,0.00,Wunderground v.1.15,2013-07-17 23:30:00,
2013-07-17 18:40:00,89.3,64.5,30.07,South,172,9.0,23.0,44,0.00,,,0.00,Wunderground v.1.15,2013-07-17 23:40:00,
2013-07-17 18:50:00,89.2,63.8,30.07,SSW,200,7.0,23.0,43,0.00,,,0.00,Wunderground v.1.15,2013-07-17 23:50:00,
2013-07-17 18:55:00,88.9,64.8,30.07,South,184,8.0,23.0,45,0.00,,,0.00,Wunderground v.1.15,2013-07-17 23:55:00,
2013-07-17 19:05:00,88.5,63.8,30.07,South,182,9.0,10.0,44,0.00,,,0.00,Wunderground v.1.15,2013-07-18 00:05:00,
2013-07-17 19:10:00,88.0,63.4,30.06,SSW,200,10.0,23.0,44,0.00,,,0.00,Wunderground v.1.15,2013-07-18 00:10:00,
2013-07-17 19:20:00,87.9,63.9,30.06,South,170,7.0,7.0,45,0.00,,,0.00,Wunderground v.1.15,2013-07-18 00:20:00,
2013-07-17 19:30:00,87.7,64.4,30.06,SSE,157,5.0,23.0,46,0.00,,,0.00,Wunderground v.1.15,2013-07-18 00:30:00,
2013-07-17 19:40:00,87.2,63.9,30.06,South,173,7.0,7.0,46,0.00,,,0.00,Wunderground v.1.15,2013-07-18 00:40:00,
2013-07-17 19:50:00,86.8,64.2,30.06,South,182,6.0,6.0,47,0.00,,,0.00,Wunderground v.1.15,2013-07-18 00:50:00,
2013-07-17 19:55:00,86.5,63.9,30.06,South,172,5.0,23.0,47,0.00,,,0.00,Wunderground v.1.15,2013-07-18 00:55:00,
2013-07-17 20:05:00,85.8,65.0,30.06,South,180,4.0,23.0,50,0.00,,,0.00,Wunderground v.1.15,2013-07-18 01:05:00,
2013-07-17 20:10:00,85.2,64.5,30.06,SSE,162,4.0,23.0,50,0.00,,,0.00,Wunderground v.1.15,2013-07-18 01:10:00,
2013-07-17 20:20:00,84.2,65.2,30.06,South,169,5.0,23.0,53,0.00,,,0.00,Wunderground v.1.15,2013-07-18 01:20:00,
2013-07-17 20:30:00,83.4,66.6,30.06,South,183,4.0,23.0,57,0.00,,,0.00,Wunderground v.1.15,2013-07-18 01:30:00,
2013-07-17 20:40:00,82.5,66.7,30.06,SSE,162,4.0,23.0,59,0.00,,,0.00,Wunderground v.1.15,2013-07-18 01:40:00,
2013-07-17 20:45:00,82.0,66.3,30.06,South,190,4.0,23.0,59,0.00,,,0.00,Wunderground v.1.15,2013-07-18 01:45:00,
2013-07-17 20:50:00,81.6,66.4,30.06,South,177,5.0,23.0,60,0.00,,,0.00,Wunderground v.1.15,2013-07-18 01:50:00,
2013-07-17 21:00:00,81.0,66.3,30.06,South,173,5.0,23.0,61,0.00,,,0.00,Wunderground v.1.15,2013-07-18 02:00:00,
2013-07-17 21:10:00,80.4,66.2,30.06,South,179,5.0,23.0,62,0.00,,,0.00,Wunderground v.1.15,2013-07-18 02:10:00,
2013-07-17 21:20:00,80.0,66.3,30.06,SSE,151,5.0,23.0,63,0.00,,,0.00,Wunderground v.1.15,2013-07-18 02:20:00,
2013-07-17 21:30:00,79.5,66.3,30.06,South,177,4.0,23.0,64,0.00,,,0.00,Wunderground v.1.15,2013-07-18 02:30:00,
2013-07-17 21:35:00,79.2,66.0,30.06,South,173,4.0,23.0,64,0.00,,,0.00,Wunderground v.1.15,2013-07-18 02:35:00,
2013-07-17 21:40:00,78.9,66.1,30.06,South,182,4.0,4.0,65,0.00,,,0.00,Wunderground v.1.15,2013-07-18 02:40:00,
2013-07-17 21:50:00,78.5,65.8,30.06,South,170,5.0,5.0,65,0.00,,,0.00,Wunderground v.1.15,2013-07-18 02:50:00,
2013-07-17 22:00:00,78.2,65.9,30.06,SSE,164,4.0,23.0,66,0.00,,,0.00,Wunderground v.1.15,2013-07-18 03:00:00,
2013-07-17 22:10:00,77.7,65.4,30.06,SE,146,4.0,23.0,66,0.00,,,0.00,Wunderground v.1.15,2013-07-18 03:10:00,
2013-07-17 22:20:00,77.1,65.7,30.06,SE,142,4.0,23.0,68,0.00,,,0.00,Wunderground v.1.15,2013-07-18 03:20:00,
2013-07-17 22:25:00,76.8,65.9,30.06,South,170,3.0,23.0,69,0.00,,,0.00,Wunderground v.1.15,2013-07-18 03:25:00,
2013-07-17 22:30:00,76.6,65.7,30.06,SSE,164,3.0,3.0,69,0.00,,,0.00,Wunderground v.1.15,2013-07-18 03:30:00,
2013-07-17 22:40:00,76.3,65.8,30.07,SSE,167,4.0,23.0,70,0.00,,,0.00,Wunderground v.1.15,2013-07-18 03:40:00,
2013-07-17 22:50:00,76.1,66.0,30.06,SSE,168,4.0,23.0,71,0.00,,,0.00,Wunderground v.1.15,2013-07-18 03:50:00,
2013-07-17 23:00:00,75.8,65.7,30.06,SSE,162,3.0,3.0,71,0.00,,,0.00,Wunderground v.1.15,2013-07-18 04:00:00,
2013-07-17 23:05:00,75.6,65.9,30.06,South,179,3.0,23.0,72,0.00,,,0.00,Wunderground v.1.15,2013-07-18 04:05:00,
2013-07-17 23:10:00,75.3,65.6,30.06,SSE,166,3.0,3.0,72,0.00,,,0.00,Wunderground v.1.15,2013-07-18 04:10:00,
2013-07-17 23:15:00,75.1,65.9,30.06,SSE,165,3.0,4.0,73,0.00,,,0.00,Wunderground v.1.15,2013-07-18 04:15:00,
2013-07-17 23:25:00,74.8,66.0,30.05,South,183,4.0,23.0,74,0.00,,,0.00,Wunderground v.1.15,2013-07-18 04:25:00,
2013-07-17 23:30:00,74.9,66.1,30.05,SSE,166,4.0,23.0,74,0.00,,,0.00,Wunderground v.1.15,2013-07-18 04:30:00,
2013-07-17 23:35:00,75.0,66.1,30.05,South,176,5.0,23.0,74,0.00,,,0.00,Wunderground v.1.15,2013-07-18 04:35:00,
2013-07-17 23:40:00,75.1,65.9,30.05,South,182,5.0,5.0,73,0.00,,,0.00,Wunderground v.1.15,2013-07-18 04:40:00,
2013-07-17 23:50:00,75.2,65.9,30.05,South,181,5.0,23.0,73,0.00,,,0.00,Wunderground v.1.15,2013-07-18 04:50:00,